Regional Weather Roundup
Issued by NWS

Home | Current Version | Previous Version | Text Only | Print | Product List | Glossary On
Versions: 1 2 3 4 5 6 7 8 9 10 11 12 13 14 15 16 17 18 19 20 21 22 23 24 25 26 27 28 29 30 31 32 33 34 35 36 37 38 39 40 41 42 43 44 45 46 47 48 49 50
000
ASUS42 KKEY 130910
RWRKEY

FLORIDA REGIONAL WEATHER ROUNDUP FOR THE FLORIDA KEYS
NATIONAL WEATHER SERVICE KEY WEST FLORIDA
400 AM EST WED DEC 13 2017

...SOUTH FLORIDA AND THE KEYS...

CITY           SKY/WX    TMP DP  RH WIND       PRES   REMARKS
FORT MYERS     PTCLDY    54  42  64 N9        30.03R
SW REGIONAL AP CLEAR     53  43  68 N7        30.04R
NAPLES         CLEAR     57  47  69 N8        30.03R
MIAMI          CLEAR     59  51  75 NW7       30.01R
WEST KENDALL   PTCLDY    57  49  74 N12       30.01R
HOMESTEAD      CLEAR     57  55  93 NW8       30.00R
MARATHON       PTCLDY    64  56  75 N13       30.00R
KEY WEST INTL  PTCLDY    69  57  65 NW13      30.00S

...INTERNATIONAL WEATHER...

CITY           SKY/WX    TMP DP  RH WIND       PRES   REMARKS
NASSAU BAHAMAS PTCLDY    70  61  73 W8        29.95S
CANCUN MEXICO  CLEAR     59  55  88 W6        30.09S
COZUMEL MEXICO PTCLDY    70  59  68 W9        30.08

ADJACENT COASTAL WATERS...

STATION/POSITION TIME  SKY/WX   TEMP    WIND        PRES    WAVE
                                AIR SEA DIR/SP/G            HT/PER
                 (UTC)          (F)     (DEG/KT/KT) (MB)    (FT/S)
PULASKI SHOAL LI 0900            71     340/ 14/ 15 1016.5R
SAND KEY         0850            71                 1016.3S
LONG KEY         NOT AVBL
MOLASSES REEF    0900            62 77  360/ 24/ 27 1015.7R
FOWEY ROCKS      0900            61 77  320/ 19/ 19 1016.4R
Buoy 42097       0830               77                N/A     8/ 8

$$



USA.gov is the U.S. government's official web portal to all federal, state and local government web resources and services.